Theta_e
318 318 317 317 317 317 317 317 316 316 316 316 316 317 319 319 319 321 315 315 319 319 317 313 312 314 316 318 317 317 321 322 322 322 324 323 325 326 330 330 332 332 335 343 345
317 317 316 317 316 316 316 316 316 316 316 317 317 318 321 321 321 319 314 319 319 312 312 314 314 313 317 318 317 319 321 321 321 322 324 322 325 326 328 329 330 332 333 337 344
316 316 315 314 314 314 315 316 316 316 317 318 319 320 321 321 321 318 318 320 315 312 309 309 312 314 316 317 318 319 320 320 319 318 319 322 324 325 327 330 331 333 333 336 339
313 313 313 313 313 314 315 316 316 317 317 319 321 321 321 322 323 320 322 318 315 316 311 313 314 315 316 317 317 319 318 318 318 317 319 321 321 324 326 327 328 330 333 336 338
311 311 311 312 312 314 316 317 317 317 316 319 321 321 322 320 321 321 319 317 319 317 312 313 314 315 316 316 317 318 318 317 318 318 318 318 319 321 321 322 323 327 332 336 338
312 312 313 313 314 315 316 317 318 319 319 319 321 322 317 320 319 321 322 321 320 314 312 313 314 315 316 316 317 317 317 317 317 318 318 318 319 318 319 322 325 328 330 333 336
317 317 317 318 318 319 319 317 318 319 319 319 321 321 318 321 321 323 323 321 321 316 312 311 312 314 316 317 316 316 317 317 317 317 319 318 319 318 319 321 323 325 327 331 333
319 319 320 320 320 320 319 319 321 320 320 320 320 320 318 322 323 323 322 320 318 314 311 311 311 312 314 316 316 316 316 316 316 317 317 318 319 320 319 320 321 323 326 329 330
320 320 321 321 320 320 321 321 322 322 321 320 319 316 319 319 320 314 313 312 312 311 311 310 312 314 315 318 319 317 320 319 317 316 317 318 318 319 318 320 321 323 325 327 328
321 321 321 321 321 321 322 322 322 321 320 318 311 313 317 321 316 318 316 311 311 310 311 311 314 317 317 319 324 323 319 320 317 316 317 317 317 318 317 319 320 320 323 325 327
318 319 322 322 321 321 320 319 314 311 308 319 318 318 314 313 312 312 311 311 312 313 317 314 317 320 321 320 320 318 316 317 318 317 316 316 317 318 318 318 319 321 322 323 324
320 320 320 318 316 314 309 307 311 311 315 312 313 314 319 313 315 315 312 314 315 320 318 317 320 321 320 317 317 317 318 319 318 317 316 317 317 318 318 318 318 320 321 322 322
315 315 315 315 315 314 311 307 310 310 315 316 314 313 313 313 315 318 313 316 319 322 321 322 324 317 318 317 316 318 319 320 319 318 317 317 318 319 318 317 317 318 320 321 321
313 314 314 314 314 314 313 309 310 312 318 318 311 311 311 313 314 315 316 316 318 320 321 321 320 321 320 319 319 322 320 317 317 317 321 317 321 322 320 318 318 317 319 320 321
312 312 312 313 313 313 312 313 312 309 324 315 310 308 310 313 311 312 312 315 318 318 318 321 318 319 319 320 319 320 316 316 317 318 319 320 319 321 319 319 319 318 317 319 319
311 311 311 311 312 312 312 312 308 320 323 316 309 309 311 311 311 311 311 313 313 317 318 318 317 316 318 317 317 316 317 316 317 318 321 321 320 322 322 321 319 316 315 317 318
310 310 311 310 309 311 311 309 315 322 315 316 313 309 310 311 310 311 313 313 317 318 319 318 318 317 314 316 316 316 317 321 321 320 322 320 320 320 319 317 318 318 317 316 316
310 310 310 308 308 309 308 309 317 315 317 310 312 312 311 311 310 310 311 314 314 315 316 319 320 318 316 316 318 317 318 323 325 326 324 320 319 320 319 317 316 315 316 316 315
310 309 309 307 306 308 307 312 317 316 310 309 310 312 314 312 311 310 312 312 311 313 315 314 314 310 309 314 315 317 318 317 318 318 319 320 319 317 318 318 317 316 315 315 314
308 307 308 307 305 307 308 313 313 309 307 307 312 310 313 310 313 313 312 312 312 311 312 312 312 311 311 309 309 314 312 317 315 316 318 318 318 318 318 318 318 317 316 314 313
307 306 305 307 303 306 309 310 310 306 306 307 309 309 309 309 310 313 313 311 310 312 311 311 311 313 312 312 312 311 311 311 313 315 316 317 317 315 317 318 317 316 315 314 314
302 302 303 305 302 300 308 308 306 307 306 307 306 307 308 308 307 309 311 310 310 312 313 312 313 313 312 311 311 312 312 312 314 314 314 315 316 313 314 312 312 312 311 310 310
300 300 301 301 304 306 306 307 306 306 307 307 308 307 307 307 308 307 308 307 308 309 311 311 315 317 316 312 312 312 311 311 312 311 315 318 317 311 310 311 311 310 310 309 309
300 302 300 300 300 304 307 308 308 305 306 306 306 307 308 308 308 308 309 308 307 308 306 309 310 312 316 313 310 311 310 310 311 314 314 314 312 311 310 311 310 310 310 310 309
300 302 302 304 302 303 304 306 308 307 305 305 306 306 308 308 309 310 308 309 308 308 308 309 310 310 310 309 309 309 309 309 310 310 311 311 312 310 309 309 310 308 307 308 308
298 300 299 301 301 303 302 304 302 305 305 306 306 307 306 307 308 309 308 309 309 308 309 309 309 309 309 308 308 309 308 308 308 309 309 309 310 308 308 308 308 307 308 308 308
297 297 298 300 301 301 301 301 302 302 302 304 305 306 306 306 306 306 305 306 307 307 308 309 309 309 308 306 306 307 307 307 308 308 309 310 309 308 308 308 307 307 307 307 306
Wind_Speed
17 16 16 16 16 17 16 15 17 17 18 19 19 18 19 22 19 17 2 3 11 14 13 12 9 7 3 4 4 3 7 8 8 8 3 6 11 8 9 10 10 9 3 7 26
19 18 18 18 18 19 17 16 17 18 18 19 19 19 19 21 22 6 4 8 16 13 11 9 8 6 4 3 4 8 8 6 4 2 1 3 10 13 12 15 9 10 7 14 26
21 20 20 20 19 19 19 19 17 18 18 18 18 19 19 20 17 4 4 15 11 11 11 8 6 5 6 5 6 4 11 1 2 4 6 5 8 12 15 16 17 20 18 20 24
22 21 21 21 20 19 19 20 19 18 18 18 19 20 19 17 7 6 16 11 7 10 9 6 5 5 6 6 5 9 9 9 4 3 4 7 3 12 14 9 11 12 19 21 24
24 23 22 22 21 20 20 20 21 20 18 18 18 20 19 11 15 17 8 7 10 12 6 5 4 4 6 3 6 12 8 7 10 9 9 7 11 9 12 8 5 14 21 23 23
23 23 22 23 22 22 21 22 21 20 19 18 19 19 14 18 9 11 16 16 13 7 5 3 2 3 6 6 7 3 8 12 12 14 9 10 13 8 15 10 11 17 21 23 25
23 22 22 23 23 22 22 24 22 20 20 20 20 22 19 26 19 24 19 19 16 10 7 5 3 5 3 4 3 7 10 11 15 18 15 12 15 14 16 17 16 18 21 23 24
24 24 23 24 24 24 25 24 24 25 23 21 21 21 14 22 25 27 22 20 15 15 11 7 6 7 6 3 5 8 6 10 4 8 9 12 20 19 19 19 19 20 22 25 27
25 25 26 26 27 26 26 27 27 29 27 23 20 13 15 15 8 5 5 4 4 10 10 5 5 8 6 7 7 7 11 9 11 6 3 13 15 10 10 19 21 22 23 25 25
25 26 25 29 26 27 30 30 29 27 24 18 16 9 17 17 7 11 12 9 4 10 7 8 7 9 8 9 11 8 8 10 11 0 7 12 17 7 8 12 18 21 23 25 27
30 26 25 27 24 25 22 13 8 7 14 15 9 8 2 3 5 6 7 9 8 11 9 12 8 14 14 13 13 10 11 14 17 7 7 13 18 17 14 14 16 18 23 27 28
20 21 21 17 14 12 11 7 7 5 10 20 26 26 28 11 7 13 11 13 13 15 10 7 14 18 11 11 11 14 15 17 17 14 11 18 21 19 18 19 22 20 23 28 26
16 14 15 13 11 11 12 13 8 5 8 10 20 20 20 16 18 23 15 17 18 17 17 20 12 1 11 12 12 15 17 16 16 15 17 21 25 26 23 27 23 24 24 26 32
12 14 12 11 9 11 10 13 6 4 6 5 6 4 9 10 9 25 25 22 13 17 17 15 17 20 16 15 14 19 13 15 15 10 12 2 15 15 7 15 18 27 27 25 28
10 12 11 12 5 8 9 9 4 3 6 8 5 5 7 13 3 4 10 20 23 15 8 5 7 14 19 21 15 13 2 8 10 11 13 16 12 4 4 12 15 15 21 24 24
15 14 10 9 11 9 10 11 5 5 8 5 6 7 7 9 3 2 4 10 8 19 19 20 10 7 12 9 13 3 10 9 9 10 13 15 13 24 14 9 13 3 8 13 18
16 14 12 11 9 12 15 12 3 7 2 6 4 6 7 6 8 7 9 10 8 8 14 15 23 20 12 10 7 16 10 6 8 7 12 2 12 19 2 5 5 3 5 8 12
15 15 14 13 11 16 20 3 9 5 14 3 1 5 6 7 6 10 6 12 14 10 3 7 8 20 17 26 16 19 16 9 7 12 15 7 11 6 7 4 1 4 6 7 10
20 21 21 18 16 20 14 4 10 14 1 2 1 4 7 9 5 7 10 7 3 12 6 4 5 1 2 14 15 12 19 17 16 19 13 13 18 9 6 5 2 3 2 5 9
23 23 23 20 21 22 5 10 10 3 3 3 7 1 5 3 7 7 8 1 2 5 13 2 6 2 4 5 9 14 5 11 9 7 15 17 16 11 1 3 3 3 4 1 3
19 10 8 21 23 14 6 8 11 8 6 4 5 3 2 2 5 5 2 6 4 2 6 6 7 5 4 5 9 9 11 7 6 12 12 14 7 7 7 9 7 9 8 6 2
4 2 8 24 7 5 5 6 4 8 11 6 3 4 5 4 5 5 3 4 2 1 4 1 3 9 12 4 2 4 2 6 9 15 9 11 14 8 10 7 9 9 8 10 7
5 0 3 5 3 3 8 10 7 7 10 7 10 10 10 8 5 5 6 3 10 3 2 2 1 8 6 5 4 2 5 5 6 4 15 12 4 3 3 7 12 15 17 15 9
7 3 4 10 3 3 8 8 7 13 14 12 7 12 12 13 8 5 7 5 2 6 8 4 2 1 3 7 4 3 2 2 2 3 2 5 11 16 9 15 20 23 19 19 13
6 3 3 4 4 4 3 1 10 9 13 12 10 18 17 16 16 16 12 11 11 8 6 3 7 9 9 9 10 9 12 11 12 11 8 8 12 16 16 11 19 20 17 18 18
7 3 3 4 5 3 3 1 6 13 7 15 18 15 19 21 19 16 19 17 13 14 17 9 7 10 12 12 14 17 19 17 19 19 19 16 22 16 24 14 17 20 19 22 20
9 6 3 6 5 10 13 13 12 10 4 12 7 8 14 20 18 14 10 16 9 13 12 12 8 7 9 7 7 12 19 21 19 17 14 17 20 15 11 11 17 14 14 15 15
Wind_Direction
253 257 263 269 276 281 287 297 303 310 316 319 323 327 327 326 331 333 300 19 348 330 325 339 339 327 275 252 236 241 247 251 249 235 181 188 195 198 202 164 181 177 160 147 178
251 256 261 266 273 279 287 292 298 304 310 314 320 323 326 326 328 307 230 330 335 343 337 326 321 326 228 223 231 243 253 268 3 296 217 229 228 178 191 183 190 172 136 156 175
251 254 260 266 271 278 286 290 295 301 304 310 318 322 324 327 325 199 259 322 332 347 346 332 323 295 254 221 200 217 257 349 243 271 288 269 209 192 209 199 199 195 172 165 173
251 255 258 264 270 273 279 286 291 297 302 309 315 319 325 328 305 272 301 306 331 339 337 320 291 250 250 231 222 253 247 251 253 222 269 255 240 208 208 201 223 201 183 175 180
250 254 257 262 263 269 277 282 290 298 300 305 315 321 327 300 273 288 297 295 312 322 313 309 302 278 259 259 255 246 265 251 246 260 256 244 239 239 219 211 195 185 179 186 188
248 251 253 258 263 267 272 278 285 294 304 307 312 320 319 285 264 279 292 288 295 292 283 285 273 298 280 269 254 352 274 271 268 259 246 239 230 218 225 192 174 178 190 194 194
246 249 251 256 261 266 271 280 287 295 298 301 306 313 297 264 279 281 277 281 276 264 255 252 267 272 297 260 301 284 285 269 250 244 239 231 241 222 226 199 198 197 197 198 195
244 247 251 256 260 265 271 281 290 290 291 297 303 304 270 284 275 276 277 277 262 241 227 247 254 261 241 281 248 272 266 273 144 217 219 213 255 226 210 204 209 206 201 198 197
248 248 250 254 262 269 276 280 286 286 287 288 290 276 269 269 277 225 213 247 223 209 218 217 220 243 216 225 246 199 274 262 289 228 235 216 256 268 198 217 224 216 209 201 196
252 254 253 256 258 268 273 275 276 279 275 274 255 265 255 245 223 247 253 209 167 162 161 195 230 239 231 213 242 286 251 263 268 27 239 252 255 212 203 215 230 225 216 207 200
253 252 248 250 245 253 260 252 262 257 223 212 217 229 223 231 166 227 207 185 169 189 206 195 229 237 241 234 273 264 253 262 266 254 275 260 261 263 246 236 235 226 217 211 208
219 220 229 215 190 184 188 191 234 235 275 245 242 239 242 273 266 233 202 197 202 228 199 194 232 258 291 276 244 251 253 252 270 274 263 269 261 257 254 234 239 225 216 214 205
171 174 174 185 188 189 202 220 226 254 262 254 235 240 243 222 242 241 213 225 237 238 224 242 247 1 246 243 244 236 252 261 264 289 274 265 271 253 247 243 234 227 222 216 208
218 215 215 211 214 214 222 220 219 290 272 187 219 235 198 200 252 241 226 220 220 240 236 260 257 251 244 245 241 262 239 255 259 264 272 105 290 283 290 218 228 227 221 218 210
235 223 218 212 217 197 218 217 216 274 282 128 158 174 163 175 345 178 205 212 235 212 199 215 209 218 237 244 230 267 257 235 239 249 276 253 267 299 158 228 228 226 224 221 215
212 216 218 218 220 219 201 180 189 233 243 161 152 181 169 203 219 126 196 202 237 236 233 253 246 246 246 244 231 259 224 243 254 255 253 245 239 274 264 305 209 69 230 226 213
204 205 209 208 213 199 173 162 203 230 105 154 192 188 208 189 197 202 192 196 189 177 221 234 237 231 223 217 198 201 193 230 230 213 253 249 224 243 40 48 51 202 206 205 202
209 200 205 203 194 181 164 107 223 259 227 16 341 199 222 190 211 200 211 234 233 258 282 229 224 206 209 228 211 206 214 228 236 246 269 206 244 262 69 77 219 264 265 216 200
210 206 203 194 188 177 160 212 221 241 252 226 214 244 212 227 251 211 223 240 278 210 233 242 238 191 1 235 232 245 226 243 272 274 273 257 258 226 152 176 153 68 93 184 200
202 198 213 198 184 175 191 230 238 223 189 216 231 226 234 202 219 210 198 70 256 253 234 287 273 165 116 183 229 242 327 218 225 241 240 258 259 257 88 359 80 88 74 87 214
186 183 211 209 188 184 205 217 238 233 201 215 215 228 246 251 261 225 81 77 360 321 232 237 239 157 192 218 238 196 234 231 266 236 264 268 269 7 52 59 69 57 47 29 336
195 200 164 197 170 224 203 199 201 222 212 242 262 232 231 231 229 213 159 12 359 298 145 152 272 256 256 64 350 64 326 260 233 238 235 272 270 57 73 58 50 39 16 0 343
158 106 209 225 196 205 218 230 237 213 204 208 221 220 204 211 222 183 157 73 48 63 50 53 202 243 190 195 118 45 24 349 282 273 246 249 253 111 347 352 336 334 326 330 331
149 196 187 236 214 312 213 217 217 224 242 235 242 222 218 221 218 199 213 209 33 91 76 66 122 335 325 28 28 127 320 61 345 273 313 262 301 294 313 305 302 301 302 310 315
179 221 189 179 220 218 284 248 215 225 226 221 231 231 230 235 232 236 202 209 227 212 190 203 243 207 215 213 207 237 243 227 232 238 235 266 253 273 278 266 263 275 278 268 269
164 175 194 131 184 218 185 117 311 297 219 217 232 237 234 241 235 239 224 203 223 213 217 203 242 233 244 234 226 248 251 247 246 245 244 256 264 268 274 278 267 263 262 265 268
194 170 138 172 188 212 239 253 247 261 273 283 276 304 262 251 272 293 304 273 224 219 202 205 221 214 249 228 248 258 249 243 249 239 239 238 248 274 273 270 272 273 257 266 283